This is the latest recevied weather packets stored in our database for station/object DM4WH-13. If no packets are shown the sender has not sent any weather packets the latest 10 day(s).
| Time | Temp. | Humidity | Pressure | Rain* | Wind** | Luminosity | Snow |
|---|---|---|---|---|---|---|---|
| 1788008412 | 23.89° C | 47% | 1016.6 hPa | 0 mm | 0.89 m/s, 324° | - | - |
| 1788008137 | 22.78° C | 50% | 1016.6 hPa | 0 mm | 0.45 m/s, 175° | - | - |
| 1788007825 | 22.78° C | 49% | 1016.6 hPa | 0 mm | 0.45 m/s, 264° | - | - |
| 1788007513 | 22.78° C | 49% | 1016.7 hPa | 0 mm | 0.45 m/s, 270° | - | - |
| 1788007225 | 22.78° C | 48% | 1016.7 hPa | 0 mm | 0.89 m/s, 163° | - | - |
| 1788006912 | 22.78° C | 50% | 1016.6 hPa | 0 mm | 0.45 m/s, 228° | - | - |
| 1788006625 | 22.78° C | 50% | 1016.6 hPa | 0 mm | 0.45 m/s, 288° | - | - |
| 1788006312 | 22.78° C | 49% | 1016.6 hPa | 0 mm | 0.45 m/s, 216° | - | - |
| 1788006025 | 22.78° C | 49% | 1016.6 hPa | 0 mm | 0.89 m/s, 240° | - | - |
| 1788005712 | 22.78° C | 51% | 1016.6 hPa | 0 mm | 0.45 m/s, 132° | - | - |
| 1788005425 | 22.78° C | 49% | 1016.6 hPa | 0 mm | 0.89 m/s, 288° | - | - |
| 1788005112 | 22.78° C | 49% | 1016.7 hPa | 0 mm | 0.45 m/s, 294° | - | - |
| 1788004825 | 22.22° C | 49% | 1016.7 hPa | 0 mm | 0.89 m/s, 170° | - | - |
| 1788004513 | 22.78° C | 50% | 1016.7 hPa | 0 mm | 0.45 m/s, 258° | - | - |
| 1788004225 | 22.22° C | 50% | 1016.8 hPa | 0 mm | 0.45 m/s, 288° | - | - |
| 1788003912 | 22.22° C | 51% | 1016.9 hPa | 0 mm | 0.45 m/s, 228° | - | - |
| 1788003625 | 22.78° C | 52% | 1016.9 hPa | 0 mm | 0.45 m/s, 276° | - | - |
| 1788003312 | 22.78° C | 51% | 1016.9 hPa | 0 mm | 0.45 m/s, 72° | - | - |
| 1788003025 | 22.78° C | 51% | 1017 hPa | 0 mm | 0.89 m/s, 318° | - | - |
| 1788002712 | 22.22° C | 53% | 1017 hPa | 0 mm | 0.45 m/s, 308° | - | - |
| 1788002425 | 22.22° C | 52% | 1017 hPa | 0 mm | 0.89 m/s, 210° | - | - |
| 1788002113 | 22.22° C | 53% | 1017.1 hPa | 0 mm | 0.45 m/s, 258° | - | - |
| 1788001826 | 21.11° C | 53% | 1017.1 hPa | 0 mm | 0.45 m/s, 288° | - | - |
| 1788001513 | 22.22° C | 52% | 1017.1 hPa | 0 mm | 0.89 m/s, 243° | - | - |
| 1788001225 | 22.22° C | 51% | 1017.1 hPa | 0 mm | 0.45 m/s, 307° | - | - |
* Rain latest hour (hover to see other rain measurements)
** Current wind speed in m/s (hover to see current wind gust speed)